Marshfield, WI

2:48 PM CST on December 12, 2017 (GMT -0600)
Marshfield Municipal

Weather History for KMFI - June, 2013

Change the Weather History Date:

Wednesday, June 5, 2013

  Actual Average Record
Temperature  
Mean Temperature 52 °F -  
Max Temperature 55 °F 75 °F 90 °F (1934)
Min Temperature 50 °F 50 °F 36 °F (1927)
Degree Days  
Heating Degree Days 12    
Growing Degree Days 2 (Base 50)    
Moisture  
Dew Point 49 °F    
Average Humidity 91    
Maximum Humidity 96    
Minimum Humidity 82    
Precipitation  
Precipitation 0.18 in - - ()
Sea Level Pressure  
Sea Level Pressure 30.05 in    
Wind  
Wind Speed 9 mph (East)    
Max Wind Speed 18 mph    
Max Gust Speed 26 mph    
Visibility 7 miles    
Events Rain    
Averages and records for this station are not official NWS values.
T = Trace of Precipitation, MM = Missing Value Source: NWS Daily Summary

Daily Weather History Graph

Daily Weather History Graph

Search for Another Location

Airport or City:

Trip Planner

Search our weather history database for the weather conditions in past years. The results will help you decide how hot, cold, wet, or windy it might be!

Date:

Astronomy

Jun. 05, 2013 Rise Set
Actual Time 5:16 AM CDT 8:42 PM CDT
Civil Twilight 4:40 AM CDT 9:18 PM CDT
Nautical Twilight 3:52 AM CDT 10:06 PM CDT
Astronomical Twilight 2:52 AM CDT 11:07 PM CDT
Moon 3:27 AM CDT (6/5) 6:04 PM CDT (6/5)
Length of Visible Light 16h 38m
Length of Day
15h 25m
Waning Crescent, 8% of the Moon is Illuminated
Jun 5
Waning Crescent
Jun 8
New
Jun 16
First Quarter
Jun 23
Full
Jun 29
Last Quarter

Hourly Weather History & Observations

Time (CDT) Temp. Dew Point Humidity Pressure Visibility Wind Dir Wind Speed Gust Speed Precip Events Conditions
12:26 AM 51.8 °F 48.2 °F 88% 30.14 in 10.0 mi ESE 6.9 mph - N/A   Overcast
12:54 AM 51.1 °F 48.9 °F 92% 30.16 in 9.0 mi ESE 5.8 mph - 0.00 in   Overcast
1:54 AM 50.0 °F 48.9 °F 96% 30.15 in 6.0 mi East 8.1 mph - 0.02 in Rain Light Rain
2:30 AM 50.0 °F 48.2 °F 94% 30.12 in 3.0 mi East 9.2 mph - 0.00 in Rain Light Rain
2:39 AM 50.0 °F 48.2 °F 94% 30.12 in 5.0 mi East 8.1 mph - 0.00 in   Overcast
2:54 AM 50.0 °F 48.9 °F 96% 30.14 in 6.0 mi East 8.1 mph - 0.00 in   Overcast
3:07 AM 50.0 °F 48.2 °F 94% 30.12 in 6.0 mi East 5.8 mph - N/A   Overcast
3:54 AM 50.0 °F 48.9 °F 96% 30.12 in 7.0 mi East 9.2 mph - N/A   Overcast
4:04 AM 50.0 °F 48.2 °F 94% 30.10 in 7.0 mi East 9.2 mph - N/A   Overcast
4:22 AM 50.0 °F 48.2 °F 94% 30.09 in 7.0 mi East 10.4 mph - N/A   Overcast
4:54 AM 50.0 °F 48.0 °F 93% 30.11 in 7.0 mi East 8.1 mph - 0.00 in Rain Light Rain
5:54 AM 50.0 °F 48.0 °F 93% 30.11 in 6.0 mi East 10.4 mph - 0.00 in   Overcast
6:54 AM 50.0 °F 48.9 °F 96% 30.14 in 3.0 mi NNE 4.6 mph - 0.04 in Rain Rain
7:01 AM 50.0 °F 48.2 °F 94% 30.12 in 3.0 mi East 8.1 mph - 0.00 in Rain Light Rain
7:17 AM 50.0 °F 48.2 °F 94% 30.11 in 4.0 mi East 9.2 mph - 0.01 in Rain Light Rain
7:54 AM 50.0 °F 48.9 °F 96% 30.10 in 4.0 mi East 13.8 mph - 0.03 in Rain Light Rain
8:21 AM 50.0 °F 48.2 °F 94% 30.07 in 6.0 mi East 10.4 mph - 0.02 in Rain Light Rain
8:54 AM 51.1 °F 48.9 °F 92% 30.11 in 10.0 mi East 11.5 mph 17.3 mph 0.02 in   Mostly Cloudy
9:54 AM 52.0 °F 48.9 °F 89% 30.09 in 10.0 mi ESE 12.7 mph - N/A   Overcast
10:54 AM 52.0 °F 48.9 °F 89% 30.08 in 10.0 mi ESE 12.7 mph - N/A   Overcast
11:54 AM 52.0 °F 48.9 °F 89% 30.07 in 10.0 mi ESE 11.5 mph 19.6 mph 0.00 in   Overcast
12:14 PM 51.8 °F 48.2 °F 88% 30.05 in 10.0 mi ESE 10.4 mph - N/A   Overcast
12:54 PM 54.0 °F 50.0 °F 86% 30.06 in 10.0 mi East 9.2 mph - 0.00 in   Overcast
1:54 PM 55.0 °F 51.1 °F 86% 30.07 in 10.0 mi NE 9.2 mph - 0.00 in Rain Light Rain
2:54 PM 53.1 °F 51.1 °F 93% 30.04 in 6.0 mi East 12.7 mph - 0.00 in Rain Light Rain
3:36 PM 53.6 °F 51.8 °F 94% 30.02 in 6.0 mi ENE 9.2 mph - 0.00 in   Overcast
3:54 PM 54.0 °F 52.0 °F 93% 30.04 in 5.0 mi NE 10.4 mph - 0.00 in   Overcast
4:54 PM 55.0 °F 52.0 °F 89% 30.01 in 7.0 mi East 10.4 mph - 0.00 in   Overcast
5:15 PM 55.4 °F 53.6 °F 94% 29.98 in 7.0 mi ESE 16.1 mph 20.7 mph N/A   Overcast
5:26 PM 55.4 °F 51.8 °F 88% 29.99 in 7.0 mi ESE 13.8 mph 21.9 mph N/A   Overcast
5:40 PM 55.4 °F 51.8 °F 88% 29.98 in 7.0 mi ESE 16.1 mph 23.0 mph 0.00 in Rain Light Rain
5:50 PM 55.4 °F 51.8 °F 88% 29.98 in 7.0 mi SE 15.0 mph 23.0 mph 0.00 in   Overcast
5:54 PM 54.0 °F 51.1 °F 90% 30.00 in 7.0 mi SE 17.3 mph 26.5 mph 0.00 in   Overcast
6:02 PM 53.6 °F 51.8 °F 94% 29.98 in 10.0 mi SE 18.4 mph 25.3 mph N/A   Overcast
6:14 PM 53.6 °F 50.0 °F 88% 29.98 in 10.0 mi ESE 13.8 mph 26.5 mph N/A   Overcast
6:28 PM 53.6 °F 50.0 °F 88% 29.97 in 10.0 mi ESE 12.7 mph - N/A   Overcast
6:46 PM 53.6 °F 48.2 °F 82% 29.97 in 10.0 mi ESE 11.5 mph 19.6 mph 0.00 in Rain Light Rain
6:54 PM 53.1 °F 48.0 °F 83% 29.99 in 10.0 mi ESE 10.4 mph - 0.00 in   Overcast
7:54 PM 51.1 °F 48.0 °F 89% 30.00 in 8.0 mi SE 8.1 mph 17.3 mph 0.00 in Rain Light Rain
8:54 PM 51.1 °F 48.9 °F 92% 30.01 in 10.0 mi NNE 3.5 mph - 0.05 in   Overcast
9:04 PM 51.8 °F 48.2 °F 88% 30.00 in 9.0 mi ENE 4.6 mph - N/A   Overcast
9:54 PM 51.1 °F 48.9 °F 92% 30.01 in 6.0 mi East 9.2 mph - 0.01 in Rain Rain
10:01 PM 51.8 °F 48.2 °F 88% 30.00 in 4.0 mi East 8.1 mph - 0.00 in Rain Light Rain
10:18 PM 50.0 °F 48.2 °F 94% 30.00 in 6.0 mi ENE 6.9 mph - 0.00 in Rain Light Rain
10:54 PM 50.0 °F 48.9 °F 96% 30.01 in 6.0 mi ENE 8.1 mph - 0.01 in Rain Light Rain
11:46 PM 50.0 °F 48.2 °F 94% 29.99 in 9.0 mi East 6.9 mph - 0.00 in   Overcast
11:54 PM 50.0 °F 48.9 °F 96% 30.01 in 10.0 mi East 6.9 mph - 0.00 in   Overcast